This demonstration page uses our WeatherBlox Daily Observations layout. Learn more.

Left ArrowRight Arrow

36.17497, -115.13722

Hourly Observations for July 23, 2020

Temp ( °F °C ) Dew Point ( °F °C ) Humidity (%) Winds ( mph kmh ) Pressure ( in mb ) Visibility ( mi km ) Precip ( " mm )
12:53 am 00:53 Clear 91 32.8 18 -7.8 7 7 SSW 6 9 29.73 1007 10 16 0.00 0.00
1:53 am 01:53 Clear 88 31.1 20 -6.7 8 8 SSE 7 11 29.72 1007 10 16 0.00 0.00
2:53 am 02:53 Clear 84 28.9 21 -6.1 10 10 Calm 29.73 1007 10 16 0.00 0.00
3:53 am 03:53 Clear 86 30 24 -4.4 10 10 S 7 11 29.73 1007 10 16 0.00 0.00
4:53 am 04:53 Clear 83 28.3 23 -5 11 11 NE 3 6 29.75 1008 10 16 0.00 0.00
5:53 am 05:53 Sunny 82 27.8 25 -3.9 12 12 Calm 29.77 1008 10 16 0.00 0.00
6:53 am 06:53 Sunny 83 28.3 29 -1.7 14 14 Calm 29.80 1009 10 16 0.00 0.00
7:53 am 07:53 Sunny 88 31.1 28 -2.2 11 11 Calm 29.81 1009 10 16 0.00 0.00
8:53 am 08:53 Sunny 92 33.3 35 1.7 13 13 E 8 13 29.82 1010 10 16 0.00 0.00
9:53 am 09:53 Sunny 94 34.4 42 5.6 17 17 SSE 10 17 29.81 1009 10 16 0.00 0.00
10:53 am 10:53 Sunny 97 36.1 40 4.4 14 14 SE 9 15 29.80 1009 10 16 0.00 0.00
11:53 am 11:53 Sunny 99 37.2 44 6.7 15 15 SE 14 22 29.78 1009 10 16 0.00 0.00
12:53 pm 12:53 Sunny 99 37.2 41 5 14 14 Calm 29.76 1008 10 16 0.00 0.00
1:53 pm 13:53 Sunny 102 38.9 36 2.2 10 10 undefined N/A 29.72 1007 10 16 0.00 0.00
2:53 pm 14:53 Sunny 105 40.6 33 0.6 8 8 S 17 28 29.70 1006 10 16 0.00 0.00
3:53 pm 15:53 Sunny 104 40 30 -1.1 7 7 SSE 12 19 29.68 1005 10 16 0.00 0.00
4:53 pm 16:53 Sunny 104 40 27 -2.8 7 7 SSW 17 28 29.67 1005 10 16 0.00 0.00
5:53 pm 17:53 Sunny 103 39.4 22 -5.6 5 5 SSW 15 24 29.67 1005 10 16 0.00 0.00
6:53 pm 18:53 Sunny 101 38.3 17 -8.3 5 5 WSW 17 28 29.68 1005 10 16 0.00 0.00
7:53 pm 19:53 Sunny 98 36.7 14 -10 4 4 WSW 13 20 29.69 1006 10 16 0.00 0.00
8:53 pm 20:53 Clear 96 35.6 14 -10 5 5 W 6 9 29.70 1006 10 16 0.00 0.00
9:53 pm 21:53 Clear 91 32.8 16 -8.9 6 6 SE 6 9 29.73 1007 10 16 0.00 0.00
10:53 pm 22:53 Clear 92 33.3 18 -7.8 6 6 SSW 8 13 29.74 1007 10 16 0.00 0.00
11:53 pm 23:53 Clear 90 32.2 19 -7.2 7 7 S 7 11 29.75 1008 10 16 0.00 0.00

Powered by AerisWeather